[[{"header":{"parameterUnit":"m.s-1","parameterCategory":1,"la1":30.2991,"la2":30.254,"lo1":-89.0895,"lo2":-89.0444,"dy":0.0017,"dx":0.0017,"nx":28,"ny":28,"refTime":"2025-03-08T09:00:00:Z","depth":0,"parameterNumber":2,"parameterNumberName":"U-component_of_WINDS"},"data":[0,0,0,0,0,0,0,0,0,0,0,0,0,0,0,0,0,0,0,0,0,0,0,0,0,0,0,0,0,0,0,0,0,0,0,0,0,0,0,0,0,0,0,0,0,0,0,0,0,0,0,0,0,0,0,0,0,0,-4.3652,-4.3652,0,-4.3634,-4.3633,-4.3633,-4.356,-4.3559,-4.3557,-4.3555,-4.3537,-4.3538,-4.3539,0,0,0,0,0,0,0,0,0,0,0,0,0,-4.3626,-4.3627,-4.3652,-4.3652,-4.3652,-4.3634,-4.3633,-4.3633,-4.3561,-4.3559,-4.3557,-4.3555,-4.3537,-4.3538,-4.3539,0,0,0,0,0,0,0,0,0,0,0,0,0,-4.3626,-4.3627,-4.3652,-4.3613,-4.361,-4.3634,-4.3633,-4.3633,-4.3561,-4.3559,-4.3556,-4.3554,-4.3536,-4.3538,-4.3539,-4.36,0,0,-4.3544,-4.3545,0,0,0,0,0,0,0,0,-4.3626,-4.3627,-4.3619,-4.3616,-4.3612,-4.3597,-4.3617,-4.3622,-4.3562,-4.358,-4.3555,-4.3552,-4.3559,-4.3559,-4.3561,-4.3599,-4.3598,-4.3545,-4.3545,-4.3546,-4.3547,0,0,0,0,0,0,0,-4.3626,-4.3627,-4.3645,-4.3619,-4.3615,-4.3597,-4.3594,-4.3618,-4.3584,-4.3578,-4.3572,-4.3571,-4.3557,-4.3559,-4.356,-4.3598,-4.3544,-4.3546,-4.3547,-4.3548,-4.3687,-4.3689,0,0,0,0,0,0,-4.3631,-4.3628,-4.3645,-4.3644,-4.3613,-4.36,-4.3597,-4.3604,-4.3583,-4.3578,-4.3573,-4.3568,-4.3558,-4.3558,-4.3559,-4.3629,-4.3546,-4.3548,-4.3549,-4.3684,-4.3687,-4.369,0,0,0,0,0,0,-4.3631,-4.3634,-4.3646,-4.3634,-4.3635,-4.3603,-4.3612,-4.3605,-4.3608,-4.358,-4.3573,-4.3583,-4.3556,-4.3556,-4.3591,-4.3628,-4.3548,-4.355,-4.3681,-4.3685,-4.3689,-4.3771,0,0,0,0,0,0,-4.3631,-4.3634,-4.3656,-4.3636,-4.3636,-4.3678,-4.3614,-4.3607,-4.3611,-4.3603,-4.3587,-4.3581,-4.3554,-4.3589,-4.3592,-4.3629,-4.3551,-4.3677,-4.3683,-4.3687,-4.3765,-4.3777,-4.3788,0,0,0,0,0,-4.363,-4.3679,-4.3657,-4.366,-4.3663,-4.368,-4.368,-4.3647,-4.3614,-4.3636,-4.3619,-4.3582,-4.3623,-4.3593,-4.3596,-4.3634,-4.3675,-4.3681,-4.3687,-4.3759,-4.3775,-4.3788,0,0,0,0,0,0,-4.3705,-4.3676,-4.3651,-4.3695,-4.3691,-4.3668,-4.3695,-4.3664,-4.3669,-4.3662,-4.3621,-4.3618,-4.3659,-4.3649,-4.3616,-4.3692,-4.3643,-4.365,-4.3697,-4.3711,-4.3722,-4.3724,-4.3552,0,0,0,0,0,-4.3726,-4.3743,-4.3717,-4.3758,-4.3757,-4.3727,-4.3733,-4.3709,-4.3702,-4.37,-4.3684,-4.368,-4.3692,-4.3701,-4.371,-4.3763,-4.3759,-4.379,-4.3802,-4.3812,-4.3819,-4.3848,-4.3862,-4.371,-4.371,-4.371,0,0,-4.3771,-4.3758,-4.377,-4.3773,-4.3767,-4.3786,-4.3726,-4.3747,-4.3761,-4.3703,-4.3735,-4.3724,-4.3716,-4.376,-4.3779,-4.3754,-4.386,-4.3819,-4.3827,-4.3829,-4.3856,-4.387,-4.3883,-4.3715,-4.3714,-4.3713,0,0,-4.3863,-4.3854,-4.3888,-4.3883,-4.3875,-4.3854,-4.3863,-4.3845,-4.3835,-4.3866,-4.3824,-4.384,-4.3861,-4.3858,-4.3859,-4.3952,-4.3919,-4.3956,-4.4017,-4.4046,-4.4058,-4.4068,-4.4103,-4.4116,-4.3963,-4.3963,-4.3963,0,-4.392,-4.3946,-4.391,-4.3935,-4.3939,-4.3887,-4.3923,-4.392,-4.3914,-4.3918,-4.389,-4.3917,-4.3908,-4.3951,-4.3974,-4.3976,-4.3986,-4.3958,-4.4059,-4.4069,-4.4078,-4.4111,-4.4124,-4.3967,-4.3967,-4.3966,-4.3966,0,-4.4018,-4.4037,-4.4066,-4.4063,-4.4069,-4.41,-4.4069,-4.408,-4.4055,-4.4038,-4.4072,-4.4059,-4.4066,-4.4074,-4.405,-4.4115,-4.41,-4.4066,-4.4016,-4.4098,-4.4128,-4.414,-4.3974,-4.3972,-4.3971,-4.397,0,0,-4.4156,-4.4134,-4.4145,-4.4144,-4.4131,-4.4146,-4.4174,-4.4181,-4.4192,-4.4191,-4.4215,-4.4234,-4.4203,-4.4205,-4.418,-4.4205,-4.4282,-4.4168,-4.4167,-4.4191,-4.4356,-4.4383,-4.4398,-4.4259,-4.4262,-4.4263,-4.4357,0,-4.4245,-4.4292,-4.4261,-4.4314,-4.4333,-4.4285,-4.431,-4.4305,-4.4291,-4.4304,-4.4288,-4.4303,-4.426,-4.4261,-4.4284,-4.4268,-4.4315,-4.426,-4.4283,-4.4284,-4.4288,-4.4413,-4.4441,-4.453,-4.4368,-4.437,-4.4371,0,-4.4354,-4.4359,-4.4414,-4.44,-4.4406,-4.4429,-4.4434,-4.4448,-4.4442,-4.443,-4.4432,-4.4401,-4.4429,-4.438,-4.4419,-4.4383,-4.439,-4.4384,-4.4386,-4.4388,-4.4334,-4.442,-4.4557,-4.4571,-4.4389,-4.4388,-4.4387,0,-4.4452,-4.4471,-4.4507,-4.4508,-4.4491,-4.4509,-4.4503,-4.4495,-4.4502,-4.4506,-4.4511,-4.4518,-4.4523,-4.453,-4.4502,-4.4468,-4.4546,-4.4493,-4.4537,-4.4538,-4.4556,-4.4556,-4.4698,-4.4559,-4.4559,-4.4558,-4.4558,0,-4.4555,-4.4591,-4.4551,-4.4574,-4.4613,-4.4578,-4.4618,-4.4607,-4.46,-4.4621,-4.4579,-4.4599,-4.456,-4.4576,-4.4555,-4.4592,-4.4593,-4.4585,-4.4579,-4.459,-4.4591,-4.4595,-4.4589,-4.4562,-4.4561,-4.4561,-4.456,0,-4.4671,-4.4646,-4.4682,-4.4664,-4.466,-4.4691,-4.4675,-4.4696,-4.4679,-4.4705,-4.4709,-4.4682,-4.4699,-4.4672,-4.4685,-4.4671,-4.4723,-4.4706,-4.4725,-4.4721,-4.4767,-4.4764,-4.4918,-4.4937,-4.4784,-4.4786,-4.4787,0,-4.4739,-4.4766,-4.4752,-4.4762,-4.4759,-4.4776,-4.4784,-4.475,-4.4759,-4.4756,-4.4777,-4.4791,-4.48,-4.483,-4.4812,-4.4823,-4.4807,-4.4861,-4.4809,-4.4819,-4.481,-4.481,-4.4813,-4.4872,-4.4874,-4.4875,-4.4876,0,-4.4864,-4.4851,-4.4863,-4.4871,-4.4881,-4.4886,-4.4887,-4.4899,-4.4863,-4.4876,-4.4893,-4.49,-4.4915,-4.493,-4.4936,-4.493,-4.4899,-4.4893,-4.4904,-4.4916,-4.4926,-4.4923,-4.4756,-4.489,-4.4888,-4.4887,-4.4887,-4.4886,-4.4959,-4.4982,-4.4976,-4.4991,-4.4989,-4.4992,-4.5011,-4.4997,-4.5011,-4.502,-4.4999,-4.5022,-4.5017,-4.5023,-4.5021,-4.5039,-4.5015,-4.5031,-4.5035,-4.504,-4.5048,-4.4922,-4.504,-4.5039,-4.5039,-4.5038,-4.5038,0,-4.5084,-4.5078,-4.5092,-4.5096,-4.5109,-4.5077,-4.5078,-4.5091,-4.5112,-4.511,-4.512,-4.5141,-4.5156,-4.5139,-4.5151,-4.5169,-4.5154,-4.5173,-4.5172,-4.5172,-4.5068,-4.5058,-4.5185,-4.5185,-4.5184,-4.5184,-4.5184,-4.5184,-4.515,-4.5187,-4.5173,-4.5209,-4.5203,-4.5225,-4.5229,-4.5232,-4.5231,-4.5256,-4.5268,-4.5257,-4.525,-4.5261,-4.5274,-4.5268,-4.5275,-4.53,-4.529,-4.5193,-4.5179,-4.5165,-4.5156,-4.5301,-4.5301,-4.5393,-4.5393,-4.5394]},{"header":{"parameterUnit":"m.s-1","parameterCategory":1,"la1":30.2991,"la2":30.254,"lo1":-89.0895,"lo2":-89.0444,"dy":0.0017,"dx":0.0017,"nx":28,"ny":28,"refTime":"2025-03-08T09:00:00:Z","depth":0,"parameterNumber":3,"parameterNumberName":"V-component_of_WINDS"},"data":[0,0,0,0,0,0,0,0,0,0,0,0,0,0,0,0,0,0,0,0,0,0,0,0,0,0,0,0,0,0,0,0,0,0,0,0,0,0,0,0,0,0,0,0,0,0,0,0,0,0,0,0,0,0,0,0,0,0,-0.8683,-0.8683,0,-0.868,-0.868,-0.868,-0.8627,-0.8625,-0.8624,-0.8622,-0.8622,-0.8623,-0.8624,0,0,0,0,0,0,0,0,0,0,0,0,0,-0.8644,-0.8645,-0.8683,-0.8683,-0.8683,-0.868,-0.868,-0.868,-0.8627,-0.8625,-0.8623,-0.8622,-0.8621,-0.8623,-0.8624,0,0,0,0,0,0,0,0,0,0,0,0,0,-0.8653,-0.8645,-0.8683,-0.8656,-0.8653,-0.868,-0.868,-0.868,-0.8627,-0.8625,-0.8623,-0.8621,-0.8621,-0.8623,-0.8625,-0.8678,0,0,-0.863,-0.8631,0,0,0,0,0,0,0,0,-0.8652,-0.8654,-0.866,-0.8658,-0.8655,-0.8651,-0.8666,-0.8679,-0.8628,-0.8637,-0.8622,-0.862,-0.8633,-0.8634,-0.8638,-0.8678,-0.8678,-0.8631,-0.8632,-0.8633,-0.8633,0,0,0,0,0,0,0,-0.8652,-0.8654,-0.8682,-0.866,-0.8657,-0.8644,-0.8643,-0.8668,-0.8647,-0.8636,-0.8632,-0.8633,-0.8632,-0.8637,-0.8638,-0.8678,-0.863,-0.8632,-0.8633,-0.8634,-0.8762,-0.8764,0,0,0,0,0,0,-0.8655,-0.8654,-0.8682,-0.8682,-0.8649,-0.8647,-0.8646,-0.8655,-0.8647,-0.8643,-0.8634,-0.863,-0.8634,-0.8636,-0.8638,-0.87,-0.8632,-0.8634,-0.8635,-0.8759,-0.8762,-0.8765,0,0,0,0,0,0,-0.8654,-0.8658,-0.8682,-0.8667,-0.8669,-0.865,-0.866,-0.8656,-0.866,-0.8645,-0.8641,-0.8643,-0.8633,-0.8635,-0.8668,-0.8699,-0.8635,-0.8637,-0.8757,-0.876,-0.8763,-0.8825,0,0,0,0,0,0,-0.8653,-0.8658,-0.8677,-0.8668,-0.867,-0.8712,-0.8662,-0.8657,-0.8664,-0.8658,-0.8652,-0.8649,-0.8631,-0.8666,-0.867,-0.8701,-0.8638,-0.8754,-0.8758,-0.8762,-0.8821,-0.883,-0.8839,0,0,0,0,0,-0.8652,-0.8695,-0.8678,-0.8682,-0.8694,-0.8714,-0.8715,-0.8693,-0.8666,-0.8686,-0.8677,-0.865,-0.8695,-0.867,-0.8674,-0.8706,-0.8752,-0.8757,-0.8762,-0.8816,-0.8829,-0.8839,0,0,0,0,0,0,-0.8709,-0.8693,-0.8675,-0.8716,-0.8717,-0.8705,-0.8729,-0.8707,-0.8715,-0.871,-0.8683,-0.8682,-0.872,-0.8716,-0.8688,-0.8757,-0.8719,-0.8725,-0.8759,-0.877,-0.8779,-0.878,-0.864,0,0,0,0,0,-0.8726,-0.8744,-0.8729,-0.8767,-0.8768,-0.8749,-0.8757,-0.8739,-0.8739,-0.874,-0.8732,-0.8734,-0.8749,-0.8759,-0.8771,-0.8819,-0.8818,-0.8844,-0.8853,-0.8861,-0.8867,-0.8893,-0.8904,-0.8781,-0.8781,-0.8781,0,0,-0.8763,-0.8756,-0.8769,-0.8778,-0.8777,-0.8796,-0.8749,-0.8771,-0.8786,-0.8743,-0.8774,-0.8769,-0.8769,-0.881,-0.8828,-0.8808,-0.89,-0.8867,-0.8873,-0.8875,-0.8899,-0.8911,-0.8921,-0.8785,-0.8784,-0.8783,0,0,-0.8838,-0.8835,-0.8866,-0.8866,-0.8864,-0.8851,-0.8859,-0.8851,-0.8845,-0.8876,-0.8845,-0.8862,-0.8887,-0.8889,-0.8893,-0.897,-0.8947,-0.8975,-0.9024,-0.905,-0.906,-0.9068,-0.9097,-0.9108,-0.8981,-0.8981,-0.8981,0,-0.8884,-0.8911,-0.8885,-0.891,-0.8915,-0.8877,-0.8909,-0.891,-0.8913,-0.8919,-0.8896,-0.8928,-0.8925,-0.8967,-0.8986,-0.899,-0.8999,-0.8976,-0.906,-0.9069,-0.9076,-0.9103,-0.9114,-0.8985,-0.8984,-0.8984,-0.8984,0,-0.8967,-0.8986,-0.9012,-0.9016,-0.9024,-0.9052,-0.9032,-0.9044,-0.9026,-0.9016,-0.9048,-0.9043,-0.9055,-0.9063,-0.9046,-0.9103,-0.9091,-0.9065,-0.9026,-0.9092,-0.9117,-0.9127,-0.899,-0.8989,-0.8988,-0.8987,0,0,-0.9079,-0.9068,-0.9078,-0.908,-0.9076,-0.909,-0.9117,-0.9128,-0.9139,-0.9143,-0.9165,-0.9188,-0.9164,-0.9169,-0.9152,-0.9175,-0.9238,-0.9146,-0.9146,-0.9164,-0.9302,-0.9322,-0.9334,-0.9222,-0.9223,-0.9225,-0.9302,0,-0.9153,-0.9198,-0.9176,-0.9224,-0.9242,-0.9207,-0.923,-0.9231,-0.9222,-0.9237,-0.9227,-0.9244,-0.9211,-0.9214,-0.9235,-0.9226,-0.9265,-0.922,-0.9244,-0.9245,-0.9246,-0.9347,-0.9369,-0.9442,-0.9312,-0.9313,-0.9314,0,-0.9245,-0.9253,-0.9302,-0.9296,-0.9302,-0.9324,-0.9333,-0.9347,-0.9347,-0.9339,-0.9345,-0.9323,-0.935,-0.931,-0.9348,-0.9318,-0.9326,-0.9323,-0.9326,-0.9328,-0.9284,-0.9354,-0.9464,-0.9476,-0.9329,-0.9328,-0.9327,0,-0.9323,-0.9345,-0.9378,-0.9381,-0.9373,-0.939,-0.9387,-0.9385,-0.9394,-0.9401,-0.9407,-0.9418,-0.9424,-0.9434,-0.9416,-0.9388,-0.9456,-0.9415,-0.9452,-0.9452,-0.9468,-0.9468,-0.9584,-0.9472,-0.9472,-0.9472,-0.9472,0,-0.9409,-0.9441,-0.9413,-0.9434,-0.9469,-0.9444,-0.948,-0.9474,-0.9473,-0.9492,-0.9462,-0.9481,-0.9455,-0.9472,-0.9458,-0.9492,-0.9495,-0.949,-0.9486,-0.9494,-0.9494,-0.95,-0.9494,-0.9475,-0.9474,-0.9474,-0.9473,0,-0.9502,-0.9485,-0.9519,-0.9509,-0.9507,-0.9534,-0.9526,-0.9545,-0.9534,-0.9559,-0.9564,-0.9547,-0.9565,-0.9548,-0.9565,-0.9556,-0.9602,-0.959,-0.9602,-0.9599,-0.9637,-0.9634,-0.9761,-0.9777,-0.9655,-0.9656,-0.9657,0,-0.9558,-0.9582,-0.9575,-0.9586,-0.9586,-0.9603,-0.9611,-0.9588,-0.9598,-0.96,-0.9619,-0.9635,-0.9646,-0.9677,-0.9668,-0.9681,-0.967,-0.9714,-0.9672,-0.9679,-0.9672,-0.9672,-0.9675,-0.9722,-0.9724,-0.9725,-0.9726,0,-0.966,-0.9651,-0.9663,-0.9674,-0.9685,-0.9692,-0.9696,-0.9707,-0.9683,-0.9696,-0.9714,-0.9723,-0.9741,-0.9757,-0.9768,-0.9766,-0.9743,-0.9739,-0.9749,-0.9757,-0.9763,-0.9762,-0.9626,-0.9737,-0.9735,-0.9735,-0.9734,-0.9734,-0.9737,-0.9757,-0.9756,-0.9772,-0.9773,-0.9778,-0.9796,-0.9787,-0.9802,-0.9814,-0.98,-0.9822,-0.9823,-0.9835,-0.9836,-0.9854,-0.9836,-0.985,-0.9853,-0.9857,-0.9863,-0.9759,-0.9856,-0.9856,-0.9855,-0.9855,-0.9855,0,-0.9839,-0.9836,-0.9851,-0.9858,-0.9871,-0.9847,-0.9851,-0.9864,-0.9884,-0.9886,-0.9898,-0.992,-0.9936,-0.9927,-0.9942,-0.9958,-0.9948,-0.9963,-0.9962,-0.9962,-0.9878,-0.9869,-0.9971,-0.9971,-0.9971,-0.9971,-0.9971,-0.9971,-0.9893,-0.9926,-0.9917,-0.995,-0.9947,-0.9969,-0.9974,-0.9979,-0.9981,-1.0006,-1.0019,-1.0014,-1.0012,-1.0026,-1.004,-1.0037,-1.0045,-1.0064,-1.0057,-0.9979,-0.9968,-0.9957,-0.9948,-1.0065,-1.0065,-1.014,-1.0141,-1.0141]}]]